Darstellungsparameter: Aktuell verwendete Einstellungen:
Skalierung der Graphiken ... ?
xyx+y,   Skalierungsfaktor:      Skalierung: Modus: x, Faktor: 1
Darstellungszeitraum ... ?
Vom - - bis: - -   Zeitraum: 15.11.2020 - 15.11.2020
Min/Max/Avg-Anzeige ... ?
Zeige MMA aktuell
Zeige MMA Monat
Zeige MMA alles
Zeige --A aktuell
Zeige --A Monat
Zeige --A alles
Keine MMA-Anzeige
MMA:
Average (ber die Originaldaten)
MMA-Basis: 15.11.2020 - 15.11.2020
Quicknavigation für Darstellung... ?
Tage:      1T, 2T, 3T, 5T -1T -2T -3T -5T +1T +2T +3T +5T
Wochen: 1W, 2W, 3W -1W -2W -3W +1W +2W +3W
Monate: 1M, 3M, 6M -1M -3M -6M +1M +3M +6M
Jahre:    1J, 3J, 5J, 10J -1J -3J -5J -10J +1J +3J +5J +10J
Nutze für die Darstellung ... ?
Originaldaten oder Mittelwerte auf ...
Stundenbasis Tagesbasis Wochenbasis
Monatsbasis Jahresbasis      Datenbasis: Original-Daten
Darstellen als:
Statistik (Auto) Statistik J:M      Darstellung:
Zur Graphik,    zurück zur Übersicht aller Sensoren.
 
Tabellarische Datenbersicht: ?
 
Sensor: Nr:Datum:Temp:Abs-Feuchte:Windchill:Wind:
Aussen-T/F 1 15-11-2020 00:00:00 10.4 C 9.35 g/m*3 10.4 C 1.6 km/h
2 15-11-2020 00:05:00 10.4 C 9.35 g/m*3 10.4 C 0 km/h
3 15-11-2020 00:10:00 10.4 C 9.35 g/m*3 10.4 C 0 km/h
4 15-11-2020 00:15:00 10.4 C 9.35 g/m*3 10.4 C 0 km/h
5 15-11-2020 00:20:00 10.4 C 9.35 g/m*3 10.4 C 1.6 km/h
6 15-11-2020 00:25:00 10.4 C 9.25 g/m*3 10.4 C 0 km/h
7 15-11-2020 00:30:00 10.4 C 9.25 g/m*3 10.4 C 1.6 km/h
8 15-11-2020 00:35:00 10.4 C 9.25 g/m*3 10.4 C 3.2 km/h
9 15-11-2020 00:40:00 10.4 C 9.25 g/m*3 10.4 C 0 km/h
10 15-11-2020 00:45:00 10.3 C 9.19 g/m*3 10.3 C 0 km/h
11 15-11-2020 00:50:00 10.3 C 9.19 g/m*3 10.3 C 0 km/h
12 15-11-2020 00:55:00 10.3 C 9.19 g/m*3 10.3 C 0 km/h
13 15-11-2020 01:00:00 10.3 C 9.19 g/m*3 10.3 C 1.6 km/h
14 15-11-2020 01:05:00 10.3 C 9.19 g/m*3 10.3 C 0 km/h
15 15-11-2020 01:10:00 10.3 C 9.19 g/m*3 10.3 C 0 km/h
16 15-11-2020 01:15:00 10.3 C 9.19 g/m*3 10.3 C 0 km/h
17 15-11-2020 01:20:00 10.3 C 9.19 g/m*3 10.3 C 0 km/h
18 15-11-2020 01:25:00 10.3 C 9.19 g/m*3 10.3 C 0 km/h
19 15-11-2020 01:30:00 10.3 C 9.19 g/m*3 10.3 C 0 km/h
20 15-11-2020 01:35:00 10.3 C 9.19 g/m*3 10.3 C 0 km/h
21 15-11-2020 01:40:00 10.3 C 9.19 g/m*3 10.3 C 1.6 km/h
22 15-11-2020 01:45:00 10.4 C 9.25 g/m*3 10.4 C 3.2 km/h
23 15-11-2020 01:50:00 10.4 C 9.25 g/m*3 10.4 C 1.6 km/h
24 15-11-2020 01:55:00 10.4 C 9.25 g/m*3 10.4 C 3.2 km/h
25 15-11-2020 02:00:00 10.5 C 9.31 g/m*3 10.5 C 1.6 km/h
Sensor: Nr:Datum:Temp:Abs-Feuchte:Windchill:Wind:
Aussen-T/F 26 15-11-2020 02:05:00 10.5 C 9.31 g/m*3 10.5 C 4.8 km/h
27 15-11-2020 02:10:00 10.6 C 9.37 g/m*3 10.6 C 0 km/h
28 15-11-2020 02:15:00 10.6 C 9.37 g/m*3 10.6 C 0 km/h
29 15-11-2020 02:20:00 10.7 C 9.43 g/m*3 10.7 C 3.2 km/h
30 15-11-2020 02:25:00 10.8 C 9.49 g/m*3 10.8 C 1.6 km/h
31 15-11-2020 02:30:00 10.8 C 9.49 g/m*3 10.8 C 3.2 km/h
32 15-11-2020 02:35:00 10.8 C 9.49 g/m*3 10.8 C 0 km/h
33 15-11-2020 02:40:00 10.9 C 9.55 g/m*3 10.9 C 0 km/h
34 15-11-2020 02:45:00 11 C 9.61 g/m*3 11 C 0 km/h
35 15-11-2020 02:50:00 11 C 9.61 g/m*3 11 C 0 km/h
36 15-11-2020 02:55:00 11.1 C 9.57 g/m*3 11.1 C 0 km/h
37 15-11-2020 03:00:00 11.1 C 9.57 g/m*3 11.1 C 0 km/h
38 15-11-2020 03:05:00 11.1 C 9.57 g/m*3 11.1 C 1.6 km/h
39 15-11-2020 03:10:00 11.1 C 9.57 g/m*3 11.1 C 1.6 km/h
40 15-11-2020 03:15:00 11.2 C 9.63 g/m*3 11.2 C 0 km/h
41 15-11-2020 03:20:00 11.2 C 9.53 g/m*3 11.2 C 0 km/h
42 15-11-2020 03:25:00 11.2 C 9.53 g/m*3 11.2 C 0 km/h
43 15-11-2020 03:30:00 11.2 C 9.53 g/m*3 11.2 C 0 km/h
44 15-11-2020 03:35:00 11.1 C 9.47 g/m*3 11.1 C 1.6 km/h
45 15-11-2020 03:40:00 11.1 C 9.47 g/m*3 11.1 C 0 km/h
46 15-11-2020 03:45:00 11 C 9.41 g/m*3 11 C 0 km/h
47 15-11-2020 03:50:00 10.9 C 9.35 g/m*3 10.9 C 0 km/h
48 15-11-2020 03:55:00 10.8 C 9.29 g/m*3 10.8 C 0 km/h
49 15-11-2020 04:00:00 10.8 C 9.29 g/m*3 10.8 C 0 km/h
50 15-11-2020 04:05:00 10.8 C 9.29 g/m*3 10.8 C 0 km/h
Sensor: Nr:Datum:Temp:Abs-Feuchte:Windchill:Wind:
Aussen-T/F 51 15-11-2020 04:10:00 10.8 C 9.29 g/m*3 10.8 C 1.6 km/h
52 15-11-2020 04:15:00 10.8 C 9.29 g/m*3 10.8 C 1.6 km/h
53 15-11-2020 04:20:00 10.8 C 9.29 g/m*3 10.8 C 1.6 km/h
54 15-11-2020 04:25:00 10.8 C 9.29 g/m*3 10.8 C 0 km/h
55 15-11-2020 04:30:00 10.8 C 9.29 g/m*3 10.29 C 6.4 km/h
56 15-11-2020 04:35:00 10.9 C 9.35 g/m*3 10.9 C 1.6 km/h
57 15-11-2020 04:40:00 10.9 C 9.35 g/m*3 10.9 C 0 km/h
58 15-11-2020 04:45:00 10.9 C 9.35 g/m*3 10.9 C 0 km/h
59 15-11-2020 04:50:00 10.9 C 9.35 g/m*3 10.9 C 1.6 km/h
60 15-11-2020 04:55:00 10.9 C 9.35 g/m*3 10.9 C 0 km/h
61 15-11-2020 05:00:00 10.9 C 9.35 g/m*3 10.9 C 1.6 km/h
62 15-11-2020 05:05:00 11 C 9.41 g/m*3 11 C 0 km/h
63 15-11-2020 05:10:00 11.1 C 9.47 g/m*3 11.1 C 0 km/h
64 15-11-2020 05:15:00 11.2 C 9.53 g/m*3 11.2 C 8.1 km/h
65 15-11-2020 05:20:00 11.2 C 9.53 g/m*3 11.2 C 0 km/h
66 15-11-2020 05:25:00 11.2 C 9.43 g/m*3 11.2 C 1.6 km/h
67 15-11-2020 05:30:00 11.3 C 9.49 g/m*3 11.3 C 0 km/h
68 15-11-2020 05:35:00 11.4 C 9.55 g/m*3 11.4 C 0 km/h
69 15-11-2020 05:40:00 11.5 C 9.61 g/m*3 11.5 C 3.2 km/h
70 15-11-2020 05:45:00 11.6 C 9.56 g/m*3 11.6 C 4.8 km/h
71 15-11-2020 05:50:00 11.7 C 9.62 g/m*3 11.7 C 1.6 km/h
72 15-11-2020 05:55:00 11.7 C 9.62 g/m*3 11.7 C 1.6 km/h
73 15-11-2020 06:00:00 11.8 C 9.68 g/m*3 11.8 C 0 km/h
74 15-11-2020 06:05:00 11.8 C 9.68 g/m*3 11.8 C 1.6 km/h
75 15-11-2020 06:10:00 12 C 9.7 g/m*3 12 C 1.6 km/h
Sensor: Nr:Datum:Temp:Abs-Feuchte:Windchill:Wind:
Aussen-T/F 76 15-11-2020 06:15:00 12.1 C 9.76 g/m*3 12.1 C 1.6 km/h
77 15-11-2020 06:20:00 12.2 C 9.82 g/m*3 12.2 C 12.9 km/h
78 15-11-2020 06:25:00 12.3 C 9.77 g/m*3 12.3 C 1.6 km/h
79 15-11-2020 06:30:00 12.3 C 9.66 g/m*3 12.3 C 3.2 km/h
80 15-11-2020 06:35:00 12.3 C 9.66 g/m*3 12.3 C 0 km/h
81 15-11-2020 06:40:00 12.3 C 9.66 g/m*3 12.3 C 8.1 km/h
82 15-11-2020 06:45:00 12.3 C 9.66 g/m*3 12.3 C 4.8 km/h
83 15-11-2020 06:50:00 12.4 C 9.62 g/m*3 12.4 C 1.6 km/h
84 15-11-2020 06:55:00 12.5 C 9.68 g/m*3 12.5 C 1.6 km/h
85 15-11-2020 07:00:00 12.5 C 9.68 g/m*3 12.5 C 0 km/h
86 15-11-2020 07:05:00 12.5 C 9.68 g/m*3 12.5 C 3.2 km/h
87 15-11-2020 07:10:00 12.4 C 9.62 g/m*3 12.4 C 3.2 km/h
88 15-11-2020 07:15:00 12.4 C 9.62 g/m*3 12.4 C 0 km/h
89 15-11-2020 07:20:00 12.3 C 9.45 g/m*3 12.3 C 1.6 km/h
90 15-11-2020 07:25:00 12.1 C 9.44 g/m*3 12.1 C 6.4 km/h
91 15-11-2020 07:30:00 12.1 C 9.54 g/m*3 12.1 C 6.4 km/h
92 15-11-2020 07:35:00 12.1 C 9.54 g/m*3 12.1 C 6.4 km/h
93 15-11-2020 07:40:00 12.1 C 9.54 g/m*3 12.1 C 1.6 km/h
94 15-11-2020 07:45:00 12.1 C 9.54 g/m*3 12.1 C 0 km/h
95 15-11-2020 07:50:00 12 C 9.48 g/m*3 12 C 0 km/h
96 15-11-2020 07:55:00 11.9 C 9.43 g/m*3 11.9 C 0 km/h
97 15-11-2020 08:00:00 11.7 C 9.31 g/m*3 11.7 C 0 km/h
98 15-11-2020 08:05:00 11.6 C 9.25 g/m*3 11.6 C 0 km/h
99 15-11-2020 08:10:00 11.4 C 9.24 g/m*3 11.4 C 0 km/h
100 15-11-2020 08:15:00 11.4 C 9.24 g/m*3 11.4 C 0 km/h
Sensor: Nr:Datum:Temp:Abs-Feuchte:Windchill:Wind:
Aussen-T/F 101 15-11-2020 08:20:00 11.3 C 9.28 g/m*3 11.3 C 0 km/h
102 15-11-2020 08:25:00 11.2 C 9.22 g/m*3 11.2 C 0 km/h
103 15-11-2020 08:30:00 11.2 C 9.22 g/m*3 11.2 C 0 km/h
104 15-11-2020 08:35:00 11.2 C 9.33 g/m*3 11.2 C 0 km/h
105 15-11-2020 08:40:00 11.2 C 9.33 g/m*3 11.2 C 0 km/h
106 15-11-2020 08:45:00 11.2 C 9.33 g/m*3 11.2 C 0 km/h
107 15-11-2020 08:50:00 11.2 C 9.33 g/m*3 11.2 C 0 km/h
108 15-11-2020 08:55:00 11.2 C 9.43 g/m*3 11.2 C 0 km/h
109 15-11-2020 09:00:00 11.2 C 9.43 g/m*3 11.2 C 0 km/h
110 15-11-2020 09:05:00 11.3 C 9.49 g/m*3 11.3 C 0 km/h
111 15-11-2020 09:10:00 11.3 C 9.49 g/m*3 11.3 C 0 km/h
112 15-11-2020 09:15:00 11.3 C 9.49 g/m*3 11.3 C 0 km/h
113 15-11-2020 09:20:00 11.3 C 9.38 g/m*3 11.3 C 0 km/h
114 15-11-2020 09:25:00 11.2 C 9.33 g/m*3 11.2 C 0 km/h
115 15-11-2020 09:30:00 11.3 C 9.38 g/m*3 11.3 C 0 km/h
116 15-11-2020 09:35:00 11.3 C 9.49 g/m*3 11.3 C 0 km/h
117 15-11-2020 09:40:00 11.4 C 9.55 g/m*3 11.4 C 6.4 km/h
118 15-11-2020 09:45:00 11.6 C 9.67 g/m*3 11.6 C 4.8 km/h
119 15-11-2020 09:50:00 11.8 C 9.68 g/m*3 11.8 C 4.8 km/h
120 15-11-2020 09:55:00 12.2 C 9.82 g/m*3 12.2 C 3.2 km/h
121 15-11-2020 10:00:00 12.3 C 9.88 g/m*3 12.3 C 3.2 km/h
122 15-11-2020 10:05:00 12.6 C 9.96 g/m*3 12.6 C 4.8 km/h
123 15-11-2020 10:10:00 12.8 C 9.97 g/m*3 12.8 C 1.6 km/h
124 15-11-2020 10:15:00 12.9 C 10.03 g/m*3 12.9 C 0 km/h
125 15-11-2020 10:20:00 13.1 C 10.16 g/m*3 13.1 C 1.6 km/h
Sensor: Nr:Datum:Temp:Abs-Feuchte:Windchill:Wind:
Aussen-T/F 126 15-11-2020 10:25:00 13.2 C 10.1 g/m*3 13.2 C 0 km/h
127 15-11-2020 10:30:00 13.3 C 10.17 g/m*3 13.3 C 0 km/h
128 15-11-2020 10:35:00 13.4 C 10.23 g/m*3 13.4 C 3.2 km/h
129 15-11-2020 10:40:00 13.5 C 10.18 g/m*3 13.5 C 0 km/h
130 15-11-2020 10:45:00 13.6 C 10.12 g/m*3 13.6 C 1.6 km/h
131 15-11-2020 10:50:00 13.8 C 10.25 g/m*3 13.8 C 1.6 km/h
132 15-11-2020 10:55:00 13.9 C 10.19 g/m*3 13.9 C 6.4 km/h
133 15-11-2020 11:00:00 14.1 C 10.19 g/m*3 14.1 C 1.6 km/h
134 15-11-2020 11:05:00 14.2 C 10.26 g/m*3 14.2 C 1.6 km/h
135 15-11-2020 11:10:00 14.4 C 10.26 g/m*3 14.4 C 4.8 km/h
136 15-11-2020 11:15:00 14.6 C 10.39 g/m*3 14.6 C 6.4 km/h
137 15-11-2020 11:20:00 14.7 C 10.32 g/m*3 14.7 C 3.2 km/h
138 15-11-2020 11:25:00 14.8 C 10.51 g/m*3 14.8 C 0 km/h
139 15-11-2020 11:30:00 15 C 10.39 g/m*3 15 C 9.7 km/h
140 15-11-2020 11:35:00 15.2 C 10.38 g/m*3 15.2 C 8.1 km/h
141 15-11-2020 11:40:00 15.4 C 10.38 g/m*3 15.4 C 12.9 km/h
142 15-11-2020 11:45:00 15.5 C 10.44 g/m*3 15.5 C 4.8 km/h
143 15-11-2020 11:50:00 15.6 C 10.37 g/m*3 15.6 C 14.5 km/h
144 15-11-2020 11:55:00 15.7 C 10.57 g/m*3 15.7 C 14.5 km/h
145 15-11-2020 12:00:00 15.8 C 10.5 g/m*3 15.8 C 8.1 km/h
146 15-11-2020 12:05:00 15.9 C 10.43 g/m*3 15.9 C 14.5 km/h
147 15-11-2020 12:10:00 16 C 10.49 g/m*3 16 C 8.1 km/h
148 15-11-2020 12:15:00 16.1 C 10.55 g/m*3 16.1 C 11.3 km/h
149 15-11-2020 12:20:00 16.2 C 10.48 g/m*3 16.2 C 8.1 km/h
150 15-11-2020 12:25:00 16.2 C 10.48 g/m*3 16.2 C 8.1 km/h
Sensor: Nr:Datum:Temp:Abs-Feuchte:Windchill:Wind:
Aussen-T/F 151 15-11-2020 12:30:00 16.3 C 10.68 g/m*3 16.3 C 3.2 km/h
152 15-11-2020 12:35:00 16.4 C 10.61 g/m*3 16.4 C 6.4 km/h
153 15-11-2020 12:40:00 16.6 C 10.74 g/m*3 16.6 C 11.3 km/h
154 15-11-2020 12:45:00 16.7 C 10.66 g/m*3 16.7 C 4.8 km/h
155 15-11-2020 12:50:00 16.8 C 10.72 g/m*3 16.8 C 8.1 km/h
156 15-11-2020 12:55:00 16.9 C 10.5 g/m*3 16.9 C 9.7 km/h
157 15-11-2020 13:00:00 17.1 C 10.63 g/m*3 17.1 C 9.7 km/h
158 15-11-2020 13:05:00 17.1 C 10.63 g/m*3 17.1 C 8.1 km/h
159 15-11-2020 13:10:00 17.2 C 10.84 g/m*3 17.2 C 0 km/h
160 15-11-2020 13:15:00 17.2 C 10.4 g/m*3 17.2 C 11.3 km/h
161 15-11-2020 13:20:00 17.3 C 10.46 g/m*3 17.3 C 4.8 km/h
162 15-11-2020 13:25:00 17.4 C 10.52 g/m*3 17.4 C 12.9 km/h
163 15-11-2020 13:30:00 17.4 C 10.52 g/m*3 17.4 C 3.2 km/h
164 15-11-2020 13:35:00 17.6 C 10.65 g/m*3 17.6 C 3.2 km/h
165 15-11-2020 13:40:00 17.7 C 10.86 g/m*3 17.7 C 4.8 km/h
166 15-11-2020 13:45:00 17.7 C 10.56 g/m*3 17.7 C 4.8 km/h
167 15-11-2020 13:50:00 17.7 C 10.41 g/m*3 17.7 C 9.7 km/h
168 15-11-2020 13:55:00 17.8 C 10.47 g/m*3 17.8 C 11.3 km/h
169 15-11-2020 14:00:00 17.9 C 10.38 g/m*3 17.9 C 8.1 km/h
170 15-11-2020 14:05:00 17.9 C 10.38 g/m*3 17.9 C 4.8 km/h
171 15-11-2020 14:10:00 17.9 C 10.38 g/m*3 17.9 C 6.4 km/h
172 15-11-2020 14:15:00 17.9 C 10.23 g/m*3 17.9 C 11.3 km/h
173 15-11-2020 14:20:00 17.8 C 10.32 g/m*3 17.8 C 11.3 km/h
174 15-11-2020 14:25:00 17.8 C 10.32 g/m*3 17.8 C 4.8 km/h
175 15-11-2020 14:30:00 17.8 C 10.32 g/m*3 17.8 C 9.7 km/h
Sensor: Nr:Datum:Temp:Abs-Feuchte:Windchill:Wind:
Aussen-T/F 176 15-11-2020 14:35:00 17.9 C 10.54 g/m*3 17.9 C 4.8 km/h
177 15-11-2020 14:40:00 17.8 C 10.17 g/m*3 17.8 C 1.6 km/h
178 15-11-2020 14:45:00 17.8 C 10.32 g/m*3 17.8 C 3.2 km/h
179 15-11-2020 14:50:00 17.9 C 10.23 g/m*3 17.9 C 6.4 km/h
180 15-11-2020 14:55:00 17.9 C 10.08 g/m*3 17.9 C 4.8 km/h
181 15-11-2020 15:00:00 17.8 C 10.17 g/m*3 17.8 C 4.8 km/h
182 15-11-2020 15:05:00 17.8 C 10.17 g/m*3 17.8 C 6.4 km/h
183 15-11-2020 15:10:00 17.8 C 10.02 g/m*3 17.8 C 9.7 km/h
184 15-11-2020 15:15:00 17.7 C 10.26 g/m*3 17.7 C 4.8 km/h
185 15-11-2020 15:20:00 17.7 C 10.26 g/m*3 17.7 C 3.2 km/h
186 15-11-2020 15:25:00 17.5 C 10.29 g/m*3 17.5 C 3.2 km/h
187 15-11-2020 15:30:00 17.3 C 10.16 g/m*3 17.3 C 4.8 km/h
188 15-11-2020 15:35:00 17.1 C 10.19 g/m*3 17.1 C 1.6 km/h
189 15-11-2020 15:40:00 16.9 C 10.21 g/m*3 16.9 C 4.8 km/h
190 15-11-2020 15:45:00 16.8 C 10.29 g/m*3 16.8 C 6.4 km/h
191 15-11-2020 15:50:00 16.8 C 10.15 g/m*3 16.8 C 1.6 km/h
192 15-11-2020 15:55:00 16.7 C 10.09 g/m*3 16.7 C 3.2 km/h
193 15-11-2020 16:00:00 16.6 C 9.89 g/m*3 16.6 C 3.2 km/h
194 15-11-2020 16:05:00 16.6 C 10.03 g/m*3 16.6 C 4.8 km/h
195 15-11-2020 16:10:00 16.6 C 10.03 g/m*3 16.6 C 12.9 km/h
196 15-11-2020 16:15:00 16.6 C 10.17 g/m*3 16.6 C 1.6 km/h
197 15-11-2020 16:20:00 16.4 C 10.05 g/m*3 16.4 C 3.2 km/h
198 15-11-2020 16:25:00 16.2 C 10.07 g/m*3 16.2 C 1.6 km/h
199 15-11-2020 16:30:00 16 C 9.95 g/m*3 16 C 3.2 km/h
200 15-11-2020 16:35:00 15.9 C 10.02 g/m*3 15.9 C 0 km/h
Sensor: Nr:Datum:Temp:Abs-Feuchte:Windchill:Wind:
Aussen-T/F 201 15-11-2020 16:40:00 15.7 C 9.9 g/m*3 15.7 C 0 km/h
202 15-11-2020 16:45:00 15.6 C 9.84 g/m*3 15.6 C 0 km/h
203 15-11-2020 16:50:00 15.6 C 9.84 g/m*3 15.6 C 6.4 km/h
204 15-11-2020 16:55:00 15.7 C 9.77 g/m*3 15.7 C 6.4 km/h
205 15-11-2020 17:00:00 15.9 C 9.89 g/m*3 15.9 C 9.7 km/h
206 15-11-2020 17:05:00 16.1 C 10.14 g/m*3 16.1 C 3.2 km/h
207 15-11-2020 17:10:00 16 C 9.95 g/m*3 16 C 8.1 km/h
208 15-11-2020 17:15:00 15.9 C 9.89 g/m*3 15.9 C 3.2 km/h
209 15-11-2020 17:20:00 15.9 C 10.02 g/m*3 15.9 C 1.6 km/h
210 15-11-2020 17:25:00 15.8 C 10.1 g/m*3 15.8 C 0 km/h
211 15-11-2020 17:30:00 15.7 C 10.17 g/m*3 15.7 C 3.2 km/h
212 15-11-2020 17:35:00 15.6 C 10.11 g/m*3 15.6 C 3.2 km/h
213 15-11-2020 17:40:00 15.5 C 10.05 g/m*3 15.5 C 4.8 km/h
214 15-11-2020 17:45:00 15.4 C 9.99 g/m*3 15.4 C 1.6 km/h
215 15-11-2020 17:50:00 15.4 C 9.85 g/m*3 15.4 C 6.4 km/h
216 15-11-2020 17:55:00 15.7 C 10.3 g/m*3 15.7 C 4.8 km/h
217 15-11-2020 18:00:00 15.7 C 10.44 g/m*3 15.7 C 4.8 km/h
218 15-11-2020 18:05:00 15.6 C 10.91 g/m*3 15.6 C 6.4 km/h
219 15-11-2020 18:10:00 15.4 C 10.9 g/m*3 15.4 C 12.9 km/h
220 15-11-2020 18:15:00 15.1 C 10.97 g/m*3 15.1 C 3.2 km/h
221 15-11-2020 18:20:00 14.8 C 10.89 g/m*3 14.8 C 4.8 km/h
222 15-11-2020 18:25:00 14.6 C 10.89 g/m*3 14.6 C 1.6 km/h
223 15-11-2020 18:30:00 14.4 C 10.88 g/m*3 14.4 C 3.2 km/h
224 15-11-2020 18:35:00 14.2 C 10.87 g/m*3 14.2 C 1.6 km/h
225 15-11-2020 18:40:00 14.1 C 10.8 g/m*3 14.1 C 6.4 km/h
Sensor: Nr:Datum:Temp:Abs-Feuchte:Windchill:Wind:
Aussen-T/F 226 15-11-2020 18:45:00 13.9 C 10.79 g/m*3 13.9 C 4.8 km/h
227 15-11-2020 18:50:00 13.8 C 10.72 g/m*3 13.8 C 9.7 km/h
228 15-11-2020 18:55:00 13.7 C 10.78 g/m*3 13.7 C 3.2 km/h
229 15-11-2020 19:00:00 13.6 C 10.71 g/m*3 13.6 C 1.6 km/h
230 15-11-2020 19:05:00 13.5 C 10.64 g/m*3 13.5 C 4.8 km/h
231 15-11-2020 19:10:00 13.4 C 10.58 g/m*3 13.4 C 3.2 km/h
232 15-11-2020 19:15:00 13.4 C 10.58 g/m*3 13.4 C 11.3 km/h
233 15-11-2020 19:20:00 13.5 C 10.64 g/m*3 13.5 C 11.3 km/h
234 15-11-2020 19:25:00 13.7 C 10.78 g/m*3 13.7 C 12.9 km/h
235 15-11-2020 19:30:00 13.7 C 10.78 g/m*3 13.7 C 4.8 km/h
236 15-11-2020 19:35:00 13.6 C 10.71 g/m*3 13.6 C 4.8 km/h
237 15-11-2020 19:40:00 13.6 C 10.83 g/m*3 13.6 C 3.2 km/h
238 15-11-2020 19:45:00 13.6 C 10.83 g/m*3 13.6 C 6.4 km/h
239 15-11-2020 19:50:00 13.6 C 10.83 g/m*3 13.6 C 4.8 km/h
240 15-11-2020 19:55:00 13.6 C 10.83 g/m*3 13.6 C 4.8 km/h
241 15-11-2020 20:00:00 13.7 C 10.89 g/m*3 13.7 C 3.2 km/h
242 15-11-2020 20:05:00 13.7 C 10.89 g/m*3 13.7 C 3.2 km/h
243 15-11-2020 20:10:00 13.7 C 10.89 g/m*3 13.7 C 11.3 km/h
244 15-11-2020 20:15:00 13.8 C 10.84 g/m*3 13.8 C 4.8 km/h
245 15-11-2020 20:20:00 13.8 C 10.84 g/m*3 13.8 C 3.2 km/h
246 15-11-2020 20:25:00 13.8 C 10.96 g/m*3 13.8 C 3.2 km/h
247 15-11-2020 20:30:00 13.8 C 10.96 g/m*3 13.8 C 8.1 km/h
248 15-11-2020 20:35:00 13.8 C 10.96 g/m*3 13.8 C 0 km/h
249 15-11-2020 20:40:00 13.7 C 10.89 g/m*3 13.7 C 14.5 km/h
250 15-11-2020 20:45:00 13.4 C 10.46 g/m*3 13.4 C 25.7 km/h
Sensor: Nr:Datum:Temp:Abs-Feuchte:Windchill:Wind:
Aussen-T/F 251 15-11-2020 20:50:00 13.1 C 10.16 g/m*3 13.1 C 24.1 km/h
252 15-11-2020 20:55:00 12.8 C 9.86 g/m*3 12.8 C 19.3 km/h
253 15-11-2020 21:00:00 12.6 C 9.85 g/m*3 12.6 C 16.1 km/h
254 15-11-2020 21:05:00 12.4 C 9.72 g/m*3 12.4 C 9.7 km/h
255 15-11-2020 21:10:00 12.3 C 9.66 g/m*3 12.3 C 9.7 km/h
256 15-11-2020 21:15:00 12.1 C 9.65 g/m*3 12.1 C 9.7 km/h
257 15-11-2020 21:20:00 12 C 9.59 g/m*3 12 C 3.2 km/h
258 15-11-2020 21:25:00 11.8 C 9.58 g/m*3 11.8 C 1.6 km/h
259 15-11-2020 21:30:00 11.7 C 9.52 g/m*3 11.7 C 4.8 km/h
260 15-11-2020 21:35:00 11.6 C 9.46 g/m*3 11.6 C 4.8 km/h
261 15-11-2020 21:40:00 11.4 C 9.44 g/m*3 11.4 C 4.8 km/h
262 15-11-2020 21:45:00 11.3 C 9.38 g/m*3 11.3 C 3.2 km/h
263 15-11-2020 21:50:00 11.2 C 9.33 g/m*3 11.2 C 4.8 km/h
264 15-11-2020 21:55:00 11.1 C 9.37 g/m*3 11.1 C 4.8 km/h
265 15-11-2020 22:00:00 11.1 C 9.37 g/m*3 11.1 C 4.8 km/h
266 15-11-2020 22:05:00 11.1 C 9.37 g/m*3 11.1 C 1.6 km/h
267 15-11-2020 22:10:00 11 C 9.41 g/m*3 11 C 0 km/h
268 15-11-2020 22:15:00 11 C 9.41 g/m*3 11 C 1.6 km/h
269 15-11-2020 22:20:00 11 C 9.41 g/m*3 11 C 4.8 km/h
270 15-11-2020 22:25:00 11 C 9.41 g/m*3 11 C 3.2 km/h
271 15-11-2020 22:30:00 10.9 C 9.35 g/m*3 10.9 C 1.6 km/h
272 15-11-2020 22:35:00 10.9 C 9.35 g/m*3 10.9 C 0 km/h
273 15-11-2020 22:40:00 10.8 C 9.29 g/m*3 10.8 C 1.6 km/h
274 15-11-2020 22:45:00 10.8 C 9.29 g/m*3 10.8 C 0 km/h
275 15-11-2020 22:50:00 10.8 C 9.39 g/m*3 10.8 C 1.6 km/h
Sensor: Nr:Datum:Temp:Abs-Feuchte:Windchill:Wind:
Aussen-T/F 276 15-11-2020 22:55:00 10.8 C 9.39 g/m*3 10.8 C 4.8 km/h
277 15-11-2020 23:00:00 10.9 C 9.35 g/m*3 9.51 C 11.3 km/h
278 15-11-2020 23:05:00 11.1 C 9.37 g/m*3 11.1 C 12.9 km/h
279 15-11-2020 23:10:00 11.3 C 9.38 g/m*3 11.3 C 12.9 km/h
280 15-11-2020 23:15:00 11.3 C 9.18 g/m*3 11.3 C 11.3 km/h
281 15-11-2020 23:20:00 11.4 C 9.14 g/m*3 11.4 C 9.7 km/h
282 15-11-2020 23:25:00 11.4 C 9.14 g/m*3 11.4 C 4.8 km/h
283 15-11-2020 23:30:00 11.3 C 8.98 g/m*3 11.3 C 9.7 km/h
284 15-11-2020 23:35:00 11.3 C 8.98 g/m*3 11.3 C 8.1 km/h
285 15-11-2020 23:40:00 11.2 C 8.82 g/m*3 11.2 C 11.3 km/h
286 15-11-2020 23:45:00 11.2 C 8.92 g/m*3 11.2 C 11.3 km/h
287 15-11-2020 23:50:00 11.1 C 8.96 g/m*3 11.1 C 6.4 km/h
288 15-11-2020 23:55:00 11.1 C 8.96 g/m*3 11.1 C 4.8 km/h

Legende:
   Min
   Max


Maximal/Minimal-Werte vom 15.11.2020 - 15.11.2020

Sensor Min Max Avg
Temp
(Aussen-T/F)
10.3 °C
15-11-2020  00:45:00
17.9 °C
15-11-2020  14:00:00
13.19 °C
Abs-Feuchte
(Aussen-T/F)
8.82 g/m*3
15-11-2020  23:40:00
10.97 g/m*3
15-11-2020  18:15:00
9.83 g/m*3
Windchill
(Aussen-T/F)
9.51 C
15-11-2020  23:00:00
17.9 C
15-11-2020  14:00:00
13.14 C

Die Daten stammen von einer Davis Vantage Pro 2 Wetter-Station und werden unter Linux mit der Software wview2wettercgi und aufbereitet. Alle Angaben erfolgen ohne Gewähr für ihre Vollständigkeit oder Richtigkeit.
Kontakt: Rainer Krienke krienke@uni-koblenz.de . Meine Webseiten an der Uni Koblenz oder privat.
Version: $Revision: 0.78 $